Temperature
5 3 3 4 4 5 4 4 4 5 6 5 5 5 6 6 6 6 6 7 7 8 9 9 9 10 10 10 11 11 11 12 12 12 12 12 12 12 12 13 13 13 13 13
4 4 4 5 5 5 4 4 4 5 6 6 5 5 6 6 6 6 6 6 6 7 8 8 9 9 10 10 10 11 11 11 11 11 12 12 12 12 12 12 12 12 12 12
4 5 5 5 5 4 5 4 4 5 5 6 5 5 6 6 6 6 6 6 6 6 6 7 8 9 9 9 10 10 10 11 11 11 11 11 11 11 11 12 12 12 12 12
4 5 5 5 5 5 5 5 5 5 5 5 5 5 5 6 6 6 6 6 5 6 6 7 7 8 8 9 9 10 10 10 11 11 11 11 11 11 11 11 11 12 12 12
5 5 5 5 5 5 5 5 5 5 5 5 5 5 5 5 6 6 6 5 5 5 6 6 7 7 8 8 9 9 9 10 10 10 10 10 10 11 11 11 11 11 11 11
5 5 5 5 6 6 5 5 5 5 5 5 5 5 5 5 5 5 5 5 5 5 5 6 6 7 7 8 8 9 9 9 9 9 10 10 10 10 10 10 11 11 11 11
5 5 5 6 5 5 5 5 4 4 4 5 5 5 5 5 5 5 5 4 4 4 5 5 5 6 6 7 7 8 8 8 9 9 9 9 9 10 10 10 10 10 10 10
4 5 6 6 5 5 5 5 5 5 5 5 5 5 5 6 5 5 4 4 4 3 4 4 4 5 5 6 6 7 7 8 8 8 8 9 9 9 9 9 9 10 10 10
4 5 6 6 6 6 6 5 5 4 5 5 5 5 6 6 5 5 4 3 3 3 3 3 4 4 5 5 6 6 7 7 7 8 8 8 8 8 9 9 9 9 9 9
5 5 6 6 6 6 6 5 4 5 5 6 6 5 5 5 5 4 3 3 3 3 3 3 3 4 4 5 5 6 6 6 7 7 7 7 8 8 8 8 8 8 9 9
5 5 5 6 6 6 6 6 5 5 5 5 6 6 6 5 4 4 3 3 2 2 2 3 3 4 4 4 5 5 5 6 6 6 7 7 7 7 7 7 8 8 8 8
5 5 5 5 6 6 6 6 5 5 5 4 5 5 5 4 4 4 3 3 3 2 2 3 3 3 4 4 4 5 5 5 5 5 6 6 6 6 7 7 7 7 7 8
6 5 5 5 6 6 6 6 5 5 4 4 4 5 5 4 4 4 3 3 3 3 3 3 3 3 3 4 4 4 4 4 5 5 5 5 6 6 6 6 6 6 7 7
6 4 4 5 6 5 5 6 5 5 4 4 4 5 5 4 4 3 3 3 3 3 3 3 3 3 3 3 3 4 4 4 4 4 4 5 5 5 5 5 5 5 6 6
5 4 5 4 5 5 5 5 5 5 5 5 5 5 5 4 3 3 3 3 3 3 2 2 2 2 3 3 3 3 3 3 3 3 4 4 4 4 4 4 4 5 5 5
4 5 5 4 5 5 5 5 5 5 5 5 5 5 4 4 4 3 3 3 3 3 2 2 2 2 2 2 3 3 3 3 3 3 3 3 3 3 3 3 3 4 4 4
3 4 4 4 4 5 5 5 5 5 5 5 5 5 4 3 3 3 3 3 3 3 2 2 2 2 2 2 2 2 2 2 2 2 2 2 2 2 2 2 2 3 3 3
3 3 3 3 4 5 6 5 5 5 5 4 4 4 3 3 4 4 4 3 3 3 3 2 2 2 2 1 1 1 1 1 1 1 1 1 1 1 1 1 1 1 1 2
2 3 3 3 3 4 5 5 4 5 5 4 4 3 3 3 3 3 4 4 3 3 2 2 2 1 1 1 1 1 1 1 1 1 0 0 0 0 0 0 0 0 0 1
2 2 3 3 4 5 6 5 5 5 5 5 4 3 3 2 2 2 4 3 3 2 2 2 1 1 1 1 0 0 0 0 0 -0 -0 -0 -1 -1 -1 -1 -1 -1 -1 -1
3 3 3 3 3 4 4 4 5 5 6 5 5 4 3 2 3 4 3 3 2 2 2 1 1 1 0 0 -0 -0 -0 -1 -1 -1 -1 -1 -1 -2 -2 -2 -2 -2 -2 -2
3 2 2 2 3 4 4 3 4 5 5 5 5 5 5 4 4 3 3 3 2 2 1 1 1 0 -0 -0 -1 -1 -1 -1 -1 -1 -2 -2 -2 -2 -2 -3 -2 -2 -3 -2
1 2 2 2 4 4 5 5 6 6 5 6 6 5 5 4 4 3 3 2 2 2 1 1 0 -0 -0 -1 -1 -1 -2 -2 -2 -2 -2 -2 -2 -3 -3 -3 -3 -3 -3 -4
1 1 1 1 2 3 5 6 6 6 6 6 5 5 4 4 4 3 3 2 2 1 1 0 -0 -0 -1 -1 -2 -2 -2 -2 -3 -3 -3 -3 -3 -3 -3 -4 -4 -4 -4 -4
1 1 0 1 1 3 5 6 6 6 5 5 5 4 4 4 3 3 2 2 1 0 0 -0 -1 -1 -1 -2 -2 -2 -3 -3 -3 -3 -3 -4 -4 -4 -4 -4 -5 -5 -5 -5
-1 1 1 3 4 2 5 6 6 5 5 5 4 4 4 3 3 2 2 1 1 0 -0 -1 -1 -2 -2 -2 -3 -3 -3 -4 -4 -4 -4 -4 -5 -5 -5 -5 -5 -5 -5 -5
Wind_Speed
3 4 1 3 3 2 1 2 6 7 6 5 8 12 14 11 8 9 9 9 10 11 10 8 7 6 5 4 5 5 5 5 5 4 4 4 5 5 5 6 8 10 11 12
3 1 3 2 2 2 2 5 6 7 4 4 7 11 9 7 6 7 8 10 10 11 10 8 7 5 4 3 4 4 5 5 5 5 4 3 3 4 4 4 6 9 10 11
2 2 1 2 2 2 4 5 5 6 8 4 6 8 6 6 5 7 8 8 9 10 11 10 8 6 4 3 3 4 4 4 5 5 2 2 2 1 3 4 5 7 8 10
1 2 1 1 2 3 4 4 5 6 5 4 3 5 6 7 9 10 11 11 11 11 10 9 8 7 6 4 3 3 3 3 3 4 4 4 3 3 3 3 4 5 7 8
1 1 1 2 3 4 5 3 3 4 3 4 2 2 7 7 9 12 12 12 11 11 10 10 9 8 7 5 4 3 2 1 1 2 4 5 4 3 2 2 3 3 4 6
2 1 2 3 2 3 3 2 1 0 1 2 3 1 5 5 9 12 13 13 13 12 11 11 10 10 8 7 6 5 3 3 2 0 1 3 3 3 2 2 3 3 3 4
3 1 1 1 1 1 1 2 3 4 3 3 2 1 4 5 7 9 11 12 12 12 12 13 13 13 12 11 9 7 6 5 4 2 1 0 1 2 2 3 3 3 3 3
2 3 2 2 2 1 0 2 2 1 3 4 2 2 4 3 5 7 8 10 11 13 12 13 13 12 12 12 11 9 8 7 6 5 3 3 1 1 1 1 1 2 2 3
0 3 2 2 3 2 1 1 2 2 1 2 4 4 3 3 6 8 9 10 11 12 12 12 12 12 12 12 12 10 10 9 8 7 6 5 4 3 2 2 1 1 2 2
1 2 3 2 1 1 1 2 2 1 0 2 4 3 4 6 7 8 8 9 10 10 11 11 11 12 11 11 10 10 10 9 9 9 8 6 6 5 4 3 3 2 2 2
1 0 4 2 0 1 0 1 1 1 2 1 2 3 1 3 3 4 5 6 7 8 9 10 10 10 10 10 10 11 11 11 10 9 8 8 8 7 6 5 5 4 3 3
2 1 2 4 3 2 2 2 2 1 1 1 1 4 2 1 1 2 3 4 6 7 7 8 9 10 10 11 10 10 10 10 10 9 9 8 8 8 8 7 7 6 5 4
2 2 3 5 3 3 1 1 2 2 2 2 1 4 1 1 1 2 2 3 4 5 7 7 8 9 10 10 9 10 10 10 9 9 9 9 9 10 9 8 8 7 7 6
3 2 3 4 4 2 3 2 1 3 2 2 3 4 3 2 2 2 2 3 3 4 5 7 7 8 8 9 9 9 9 9 9 9 9 9 9 9 8 8 8 8 7 7
3 1 2 4 4 2 2 3 2 3 3 4 4 4 5 3 3 2 2 2 3 4 5 6 6 7 8 8 8 8 8 9 9 9 9 9 8 8 8 8 8 8 7 8
2 0 2 3 2 2 3 5 3 3 3 3 3 5 4 1 1 1 1 1 2 4 4 5 6 6 7 8 8 8 8 8 8 8 8 8 8 9 9 9 8 8 8 7
2 1 2 4 6 5 5 6 5 3 4 5 5 5 2 1 2 3 3 2 2 3 3 4 4 5 5 6 6 7 7 7 8 8 8 9 9 9 9 9 9 9 8 8
2 1 0 3 5 4 6 2 4 4 4 5 5 4 4 4 3 3 3 3 3 2 2 3 3 4 4 4 5 5 6 6 7 7 8 8 8 8 8 8 8 8 7 7
4 3 1 1 3 7 6 3 4 4 5 5 6 5 3 1 1 3 2 3 3 2 2 2 2 2 3 5 5 5 6 6 7 8 8 8 8 8 8 8 8 7 7 7
3 3 2 1 2 5 5 2 2 2 5 4 6 5 4 4 1 4 2 2 2 1 1 1 2 2 3 4 4 4 5 6 7 8 8 8 7 7 8 8 7 6 6 7
0 1 3 4 5 8 6 2 4 2 5 2 5 5 6 6 5 2 2 2 1 1 0 1 1 2 3 4 4 4 5 6 7 7 7 7 7 7 7 7 6 7 7 7
5 4 5 4 5 8 3 6 7 7 2 3 4 5 6 6 3 2 2 2 1 0 1 1 2 3 4 4 4 5 6 7 7 7 7 8 8 7 7 7 8 7 7 8
6 7 5 8 9 5 5 7 5 3 4 4 4 4 5 5 4 3 3 2 2 1 1 1 1 3 4 4 3 5 6 7 7 7 8 8 8 7 7 7 8 8 7 7
5 4 4 6 9 7 8 7 5 5 5 4 4 4 5 5 4 4 3 2 2 1 1 1 2 3 5 5 4 5 6 6 7 7 8 8 8 8 7 7 7 7 7 7
7 5 5 7 8 7 7 7 6 5 4 3 3 3 5 5 4 4 3 3 2 1 1 1 2 3 5 5 6 6 6 6 7 8 8 8 7 7 8 8 7 8 7 9
7 9 8 9 8 6 6 4 4 5 5 5 4 3 3 5 5 4 3 3 2 2 1 1 2 3 4 5 6 6 6 6 6 8 8 7 7 7 7 8 9 12 12 16
Wind_Direction
63 77 158 206 183 181 201 281 290 281 285 298 287 292 301 311 318 312 311 313 313 306 296 298 293 284 272 259 246 235 231 227 209 203 201 203 212 214 212 208 207 204 201 198
66 323 238 190 177 203 255 287 288 294 300 293 296 296 299 312 315 314 319 321 322 321 322 322 319 310 282 266 253 243 237 229 215 211 201 197 192 206 212 212 209 205 202 200
142 240 195 158 183 228 254 241 263 287 313 306 314 315 328 332 342 345 345 333 332 332 330 330 332 327 317 298 271 258 243 230 218 207 191 186 172 175 202 209 214 209 203 200
236 254 179 193 224 205 269 241 246 281 315 320 1 318 315 337 341 353 351 347 343 341 340 341 341 339 334 316 305 277 251 236 221 197 191 188 193 206 216 209 223 216 207 202
258 243 199 233 235 196 239 280 259 267 268 300 320 270 302 339 342 346 349 350 349 349 352 356 354 349 349 347 341 337 318 297 242 202 201 202 210 220 213 197 210 220 221 213
254 251 213 225 258 211 252 316 305 15 60 308 281 226 305 336 335 337 346 351 354 357 0 4 6 8 7 4 6 9 12 6 12 40 204 199 209 212 202 210 218 224 225 222
340 305 249 197 333 343 63 54 22 7 4 274 288 229 276 317 335 339 344 353 358 1 5 8 9 13 14 12 11 11 20 19 18 21 355 257 213 200 213 227 229 231 232 226
12 318 259 197 206 237 233 134 134 237 274 294 323 278 281 322 349 359 2 5 8 9 10 10 9 11 13 12 13 20 26 22 19 23 21 22 30 70 323 290 261 249 251 246
71 292 292 226 212 179 148 175 180 161 253 286 298 304 310 359 8 10 9 12 11 9 9 11 11 14 13 12 13 18 26 27 23 19 21 23 21 24 12 353 343 314 287 276
198 288 298 297 94 309 190 164 106 136 305 306 315 313 319 335 349 358 3 7 5 6 6 6 8 11 13 13 14 21 25 25 23 22 26 25 17 10 4 7 356 333 319 303
186 242 313 350 202 251 183 114 144 177 183 189 318 299 308 324 344 350 352 360 0 4 3 2 3 5 10 15 18 21 21 22 23 23 24 23 16 11 13 12 1 351 339 327
204 137 295 275 256 217 199 208 173 178 264 190 217 278 341 4 345 356 351 357 0 5 3 3 3 6 11 16 18 19 18 20 19 19 22 21 16 15 15 8 1 358 352 345
152 96 1 352 351 2 335 283 175 153 129 166 197 275 336 25 10 5 355 352 357 2 4 5 6 8 11 12 14 16 16 13 13 18 20 19 17 15 12 4 359 359 358 357
114 115 163 208 248 275 296 302 200 153 170 226 232 262 299 299 305 316 327 341 351 358 3 6 4 4 7 9 12 12 12 10 12 16 19 18 13 9 4 1 1 1 360 359
94 149 240 247 254 246 254 268 251 198 207 210 241 249 265 259 250 268 305 337 348 352 359 2 2 0 3 5 6 7 7 6 8 13 15 10 3 1 1 360 359 359 360 356
44 12 330 308 293 286 281 265 243 232 219 225 255 272 256 242 159 271 271 309 327 336 349 355 359 2 2 0 358 360 1 0 4 11 8 2 1 1 0 357 357 358 356 351
6 29 359 300 316 337 288 248 206 215 214 199 225 245 223 216 244 251 252 255 274 303 326 342 346 348 350 350 351 353 351 353 4 7 3 0 360 360 355 352 354 351 345 345
164 96 116 313 358 274 253 245 192 211 247 220 230 241 225 220 235 248 223 222 257 285 309 324 330 334 337 341 346 345 350 355 357 358 356 354 353 352 347 348 346 339 334 333
173 153 125 24 306 282 290 228 180 196 274 224 216 235 230 165 10 309 249 208 221 241 259 277 298 314 332 339 341 346 350 351 352 350 346 342 342 341 342 340 335 328 328 327
93 114 137 160 262 260 265 192 160 107 285 244 195 207 186 138 250 272 240 190 210 247 279 295 324 344 340 332 339 351 346 346 342 334 330 330 331 332 330 325 321 320 322 319
353 110 179 200 238 266 254 191 124 170 254 230 189 196 177 191 213 223 161 168 186 205 289 340 348 340 327 331 346 346 340 332 323 322 324 327 327 323 318 318 319 320 320 319
206 199 205 183 217 258 206 147 186 220 236 198 198 197 194 209 214 188 181 187 187 206 330 351 347 332 332 342 347 335 326 318 322 324 324 322 321 320 323 319 318 318 318 317
215 203 201 203 223 245 206 210 231 200 211 217 205 208 193 203 215 208 204 209 215 231 287 323 320 319 325 332 333 319 315 321 326 326 322 317 317 316 316 314 314 317 316 316
262 202 213 257 261 252 247 246 246 220 218 224 213 203 187 201 211 210 212 217 231 259 281 315 332 326 324 329 328 311 314 324 325 321 318 316 317 316 315 312 310 311 312 311
236 199 222 257 272 288 268 236 232 226 214 211 205 198 196 194 209 207 210 221 232 263 290 311 308 306 310 321 323 323 324 329 326 320 317 318 316 313 314 313 307 306 293 293
206 196 200 234 232 220 255 254 217 208 217 209 197 199 201 194 205 199 204 211 212 236 273 302 306 307 311 318 318 322 328 329 325 324 322 319 316 316 316 315 314 310 309 308
Height
1492 1497 1499 1499 1500 1501 1502 1503 1503 1498 1492 1491 1487 1482 1476 1472 1470 1467 1463 1460 1457 1453 1451 1449 1448 1448 1448 1449 1450 1451 1453 1455 1457 1459 1460 1462 1464 1467 1469 1471 1474 1477 1479 1482
1496 1498 1497 1497 1499 1500 1502 1502 1501 1495 1490 1488 1486 1480 1474 1471 1469 1466 1463 1459 1456 1451 1448 1445 1444 1444 1444 1444 1446 1447 1449 1450 1453 1455 1456 1458 1460 1462 1464 1466 1469 1471 1474 1477
1496 1497 1495 1496 1498 1500 1499 1501 1499 1497 1491 1487 1487 1479 1474 1470 1468 1465 1463 1459 1456 1452 1447 1444 1442 1441 1441 1441 1442 1443 1444 1446 1448 1450 1452 1454 1456 1457 1460 1461 1464 1466 1469 1472
1496 1494 1495 1495 1497 1498 1498 1494 1495 1494 1494 1492 1490 1489 1477 1473 1469 1466 1463 1459 1455 1451 1447 1444 1441 1440 1439 1438 1439 1439 1440 1442 1444 1446 1448 1449 1451 1452 1454 1457 1459 1462 1464 1466
1495 1494 1494 1495 1494 1495 1495 1492 1493 1493 1492 1493 1491 1491 1483 1476 1471 1467 1464 1460 1456 1452 1448 1445 1442 1439 1438 1437 1436 1437 1438 1439 1440 1442 1444 1446 1447 1449 1451 1453 1455 1457 1459 1461
1494 1493 1493 1493 1492 1492 1492 1492 1492 1493 1494 1496 1490 1492 1486 1479 1475 1470 1466 1462 1458 1453 1449 1446 1442 1439 1437 1436 1435 1435 1436 1437 1438 1439 1441 1442 1444 1445 1447 1448 1451 1452 1454 1456
1495 1493 1492 1492 1492 1491 1492 1496 1500 1498 1501 1495 1488 1488 1486 1478 1476 1473 1469 1465 1461 1456 1451 1447 1444 1441 1438 1436 1435 1435 1435 1435 1436 1437 1438 1440 1441 1442 1443 1445 1446 1448 1449 1451
1499 1498 1491 1491 1491 1492 1492 1494 1499 1498 1498 1494 1488 1487 1483 1478 1476 1474 1471 1467 1463 1459 1455 1451 1447 1443 1440 1438 1436 1435 1435 1435 1436 1436 1436 1437 1438 1439 1440 1441 1442 1443 1445 1446
1498 1496 1490 1489 1489 1490 1491 1493 1493 1498 1497 1495 1489 1484 1479 1477 1476 1474 1472 1469 1465 1462 1458 1454 1450 1447 1444 1441 1439 1437 1437 1436 1436 1436 1435 1436 1437 1437 1438 1439 1439 1440 1441 1443
1495 1496 1491 1489 1489 1489 1490 1491 1495 1496 1494 1490 1487 1485 1483 1479 1477 1475 1473 1471 1468 1464 1461 1457 1454 1450 1447 1445 1442 1440 1439 1438 1437 1437 1436 1436 1436 1436 1436 1436 1437 1437 1438 1439
1494 1496 1494 1490 1489 1489 1490 1491 1492 1495 1495 1493 1490 1487 1481 1480 1479 1477 1475 1473 1470 1467 1464 1460 1457 1453 1450 1448 1445 1443 1441 1439 1438 1437 1437 1436 1436 1436 1435 1435 1434 1434 1435 1435
1494 1497 1496 1491 1487 1487 1487 1488 1491 1493 1493 1495 1494 1491 1480 1480 1479 1478 1476 1474 1472 1469 1466 1463 1459 1455 1452 1449 1447 1445 1444 1442 1440 1439 1438 1437 1436 1435 1433 1433 1433 1432 1432 1432
1493 1496 1499 1495 1493 1490 1488 1487 1488 1491 1494 1497 1496 1489 1480 1479 1478 1477 1476 1475 1473 1470 1468 1465 1461 1458 1455 1452 1450 1448 1446 1444 1442 1441 1439 1437 1435 1434 1432 1432 1431 1430 1429 1428
1491 1497 1500 1498 1493 1491 1489 1487 1486 1489 1492 1492 1489 1485 1480 1478 1478 1477 1476 1475 1473 1472 1469 1467 1464 1461 1458 1456 1453 1451 1449 1446 1444 1442 1440 1438 1436 1434 1432 1431 1429 1428 1427 1426
1492 1496 1495 1494 1492 1490 1488 1487 1486 1487 1486 1487 1484 1482 1478 1477 1477 1476 1476 1475 1473 1472 1470 1468 1465 1463 1460 1458 1455 1453 1450 1448 1445 1443 1440 1438 1436 1434 1432 1430 1429 1427 1426 1424
1495 1496 1494 1493 1489 1489 1488 1484 1484 1483 1483 1483 1482 1480 1475 1475 1475 1475 1475 1474 1473 1472 1470 1468 1466 1464 1461 1459 1456 1454 1451 1449 1446 1443 1441 1439 1437 1434 1432 1430 1428 1426 1424 1423
1498 1497 1497 1497 1493 1487 1486 1480 1480 1479 1479 1480 1480 1477 1474 1475 1474 1474 1473 1473 1472 1471 1470 1468 1466 1464 1462 1460 1457 1454 1452 1449 1446 1443 1441 1438 1436 1433 1431 1429 1426 1424 1422 1421
1498 1499 1501 1502 1495 1491 1482 1476 1476 1477 1476 1475 1475 1473 1473 1473 1473 1472 1472 1471 1470 1470 1469 1468 1466 1464 1462 1460 1457 1455 1452 1449 1446 1443 1440 1437 1434 1431 1429 1427 1424 1422 1420 1417
1495 1498 1501 1503 1501 1491 1479 1475 1475 1476 1474 1471 1471 1471 1471 1472 1472 1471 1470 1470 1469 1469 1468 1467 1465 1463 1461 1459 1457 1454 1451 1448 1445 1442 1439 1436 1433 1430 1427 1424 1422 1419 1417 1414
1495 1497 1501 1501 1496 1487 1474 1473 1473 1476 1475 1468 1468 1469 1470 1471 1474 1471 1469 1468 1468 1467 1466 1465 1464 1462 1460 1458 1455 1453 1450 1447 1444 1441 1438 1435 1432 1429 1425 1422 1419 1416 1413 1410
1497 1499 1500 1500 1498 1485 1474 1472 1474 1479 1471 1466 1465 1466 1468 1468 1469 1468 1467 1467 1466 1466 1465 1463 1462 1460 1458 1456 1453 1451 1448 1445 1443 1440 1437 1434 1430 1427 1423 1420 1417 1413 1409 1406
1495 1497 1498 1498 1496 1485 1470 1471 1473 1469 1464 1463 1464 1464 1465 1465 1466 1465 1465 1465 1464 1463 1462 1461 1459 1458 1456 1454 1451 1448 1446 1443 1440 1437 1434 1431 1428 1424 1421 1417 1413 1410 1406 1402
1492 1489 1487 1486 1478 1468 1466 1465 1464 1463 1463 1462 1462 1463 1463 1463 1463 1463 1463 1462 1462 1461 1460 1458 1457 1455 1453 1451 1449 1446 1443 1440 1437 1434 1431 1427 1424 1421 1417 1413 1409 1405 1402 1398
1484 1481 1482 1479 1468 1464 1462 1461 1461 1461 1461 1460 1461 1461 1461 1460 1460 1460 1460 1460 1459 1458 1457 1456 1454 1452 1451 1449 1446 1443 1440 1437 1434 1430 1427 1424 1420 1416 1413 1410 1406 1402 1398 1395
1478 1477 1477 1473 1464 1461 1457 1457 1457 1457 1457 1458 1458 1458 1458 1458 1457 1457 1457 1457 1456 1455 1454 1453 1451 1449 1448 1446 1443 1441 1438 1434 1431 1427 1424 1420 1417 1413 1409 1406 1403 1399 1396 1393
1467 1467 1469 1463 1457 1457 1454 1454 1454 1454 1454 1454 1454 1454 1454 1454 1454 1454 1454 1454 1453 1452 1451 1450 1448 1447 1445 1442 1440 1437 1435 1431 1428 1424 1421 1417 1413 1409 1406 1402 1398 1395 1393 1389